Hourly Weather Chalupska

Today, 19 June, Saturday

Time Temperature Precipitation Wind Pressure Humidity
00:00 +20°C° 0 mm 3 mps 754 mmHg 79%
01:00 +20°C° 0 mm 3 mps 754 mmHg 79%
02:00 +20°C° 0 mm 3 mps 754 mmHg 81%
03:00 +19°C° 0 mm 3 mps 754 mmHg 82%
04:00 +19°C° 0 mm 3 mps 754 mmHg 84%
05:00 +21°C° 0 mm 4 mps 754 mmHg 80%
06:00 +22°C° 0 mm 4 mps 754 mmHg 75%
07:00 +25°C° 0 mm 4 mps 754 mmHg 70%
08:00 +27°C° 0 mm 5 mps 754 mmHg 64%
09:00 +28°C° 0 mm 5 mps 754 mmHg 58%
10:00 +29°C° 0 mm 5 mps 754 mmHg 53%
11:00 +30°C° 0 mm 5 mps 753 mmHg 50%
12:00 +32°C° 0 mm 5 mps 753 mmHg 47%
13:00 +32°C° 0 mm 4 mps 753 mmHg 45%
14:00 +32°C° 0 mm 4 mps 753 mmHg 45%
15:00 +31°C° 0 mm 3 mps 753 mmHg 44%
16:00 +31°C° 0 mm 3 mps 752 mmHg 44%
17:00 +30°C° 0 mm 3 mps 752 mmHg 52%
18:00 +29°C° 0 mm 2 mps 752 mmHg 59%
19:00 +27°C° 0 mm 2 mps 751 mmHg 66%
20:00 +26°C° 0 mm 2 mps 752 mmHg 68%
21:00 +25°C° 0 mm 3 mps 752 mmHg 70%
22:00 +24°C° 0 mm 3 mps 752 mmHg 72%
23:00 +22°C° 0 mm 3 mps 752 mmHg 76%

Tomorrow, 20 June, Sunday

Time Temperature Precipitation Wind Pressure Humidity
00:00 +22°C° 0 mm 3 mps 752 mmHg 79%
01:00 +21°C° 0 mm 3 mps 752 mmHg 83%
02:00 +21°C° 0 mm 3 mps 751 mmHg 85%
03:00 +20°C° 0 mm 3 mps 751 mmHg 87%
04:00 +20°C° 0 mm 3 mps 751 mmHg 89%
05:00 +21°C° 0 mm 3 mps 751 mmHg 84%
06:00 +23°C° 0 mm 4 mps 751 mmHg 78%
07:00 +25°C° 0 mm 4 mps 751 mmHg 72%
08:00 +26°C° 0 mm 5 mps 751 mmHg 67%
09:00 +27°C° 0 mm 5 mps 751 mmHg 61%
10:00 +29°C° 0 mm 5 mps 751 mmHg 56%
11:00 +29°C° 0 mm 5 mps 751 mmHg 53%
12:00 +30°C° 0 mm 5 mps 751 mmHg 49%
13:00 +30°C° 0 mm 5 mps 750 mmHg 46%
14:00 +30°C° 0 mm 5 mps 750 mmHg 47%
15:00 +32°C° 0 mm 5 mps 750 mmHg 47%
16:00 +32°C° 0 mm 4 mps 749 mmHg 48%
17:00 +29°C° 0 mm 4 mps 749 mmHg 55%
18:00 +28°C° 0 mm 4 mps 749 mmHg 62%
19:00 +26°C° 0 mm 3 mps 749 mmHg 68%
20:00 +25°C° 0.1 mm 3 mps 749 mmHg 72%
21:00 +24°C° 0.1 mm 3 mps 749 mmHg 75%
22:00 +22°C° 0.1 mm 3 mps 749 mmHg 79%
23:00 +21°C° 0 mm 3 mps 748 mmHg 80%

Day after tomorrow, 21 June, Monday

Time Temperature Precipitation Wind Pressure Humidity
00:00 +21°C° 0 mm 3 mps 748 mmHg 81%
01:00 +20°C° 0 mm 3 mps 748 mmHg 82%
02:00 +20°C° 0 mm 3 mps 748 mmHg 84%
03:00 +20°C° 0 mm 3 mps 748 mmHg 86%
04:00 +19°C° 0 mm 3 mps 747 mmHg 88%
05:00 +21°C° 0 mm 4 mps 747 mmHg 83%
06:00 +22°C° 0 mm 4 mps 747 mmHg 78%
07:00 +25°C° 0 mm 5 mps 748 mmHg 73%
08:00 +26°C° 0 mm 5 mps 748 mmHg 68%
09:00 +27°C° 0 mm 5 mps 747 mmHg 62%
10:00 +29°C° 0 mm 5 mps 747 mmHg 57%
11:00 +29°C° 0 mm 5 mps 747 mmHg 54%
12:00 +30°C° 0 mm 5 mps 747 mmHg 52%
13:00 +32°C° 0 mm 5 mps 747 mmHg 49%
14:00 +32°C° 0 mm 4 mps 747 mmHg 48%
15:00 +31°C° 0 mm 3 mps 747 mmHg 47%
16:00 +33°C° 0 mm 3 mps 746 mmHg 47%
17:00 +30°C° 0 mm 3 mps 746 mmHg 56%
18:00 +28°C° 0 mm 3 mps 746 mmHg 65%
19:00 +26°C° 0 mm 3 mps 746 mmHg 75%
20:00 +24°C° 0.5 mm 3 mps 747 mmHg 81%
21:00 +22°C° 0.5 mm 3 mps 747 mmHg 88%
22:00 +20°C° 0.5 mm 3 mps 748 mmHg 94%
23:00 +20°C° 0.2 mm 3 mps 748 mmHg 95%

22 June, Tuesday

Time Temperature Precipitation Wind Pressure Humidity
00:00 +19°C° 0.2 mm 3 mps 748 mmHg 96%
01:00 +19°C° 0.2 mm 3 mps 748 mmHg 97%
02:00 +18°C° 0 mm 3 mps 748 mmHg 96%
03:00 +18°C° 0 mm 3 mps 748 mmHg 96%
04:00 +17°C° 0 mm 3 mps 748 mmHg 96%
05:00 +18°C° 0.3 mm 3 mps 749 mmHg 91%
06:00 +19°C° 0.3 mm 3 mps 749 mmHg 86%
07:00 +20°C° 0.3 mm 4 mps 750 mmHg 82%
08:00 +21°C° 0 mm 4 mps 750 mmHg 76%
09:00 +23°C° 0 mm 4 mps 750 mmHg 70%
10:00 +25°C° 0 mm 4 mps 750 mmHg 63%
11:00 +26°C° 0 mm 3 mps 750 mmHg 61%
12:00 +27°C° 0 mm 3 mps 750 mmHg 58%
13:00 +28°C° 0 mm 3 mps 750 mmHg 55%
14:00 +29°C° 0 mm 3 mps 750 mmHg 54%
15:00 +29°C° 0 mm 3 mps 750 mmHg 54%
16:00 +29°C° 0 mm 3 mps 750 mmHg 53%
17:00 +28°C° 0.1 mm 3 mps 750 mmHg 60%
18:00 +27°C° 0.1 mm 3 mps 751 mmHg 67%
19:00 +26°C° 0.1 mm 2 mps 751 mmHg 74%
20:00 +24°C° 0 mm 3 mps 751 mmHg 80%
21:00 +21°C° 0 mm 4 mps 751 mmHg 86%
22:00 +20°C° 0 mm 4 mps 751 mmHg 92%
23:00 +19°C° 0 mm 4 mps 752 mmHg 89%

23 June, Wednesday

Time Temperature Precipitation Wind Pressure Humidity
00:00 +18°C° 0 mm 4 mps 752 mmHg 86%
01:00 +17°C° 0 mm 4 mps 752 mmHg 83%
02:00 +15°C° 0 mm 4 mps 752 mmHg 83%
03:00 +15°C° 0 mm 4 mps 752 mmHg 82%
04:00 +15°C° 0 mm 4 mps 752 mmHg 82%
05:00 +17°C° 0.1 mm 4 mps 752 mmHg 79%
06:00 +18°C° 0.1 mm 4 mps 752 mmHg 77%
07:00 +19°C° 0.1 mm 4 mps 752 mmHg 74%
08:00 +20°C° 0.9 mm 4 mps 752 mmHg 75%
09:00 +20°C° 0.9 mm 4 mps 752 mmHg 76%
10:00 +21°C° 0.9 mm 4 mps 752 mmHg 76%
11:00 +21°C° 1.2 mm 4 mps 753 mmHg 80%
12:00 +21°C° 1.2 mm 4 mps 753 mmHg 84%
13:00 +20°C° 1.2 mm 4 mps 753 mmHg 88%
14:00 +20°C° 0.8 mm 5 mps 753 mmHg 89%
15:00 +19°C° 0.8 mm 5 mps 753 mmHg 91%
16:00 +19°C° 0.8 mm 6 mps 753 mmHg 92%
17:00 +17°C° 0.2 mm 6 mps 754 mmHg 92%
18:00 +16°C° 0.2 mm 5 mps 754 mmHg 92%
19:00 +16°C° 0.2 mm 5 mps 754 mmHg 92%
20:00 +15°C° 0 mm 4 mps 754 mmHg 93%
21:00 +16°C° 0 mm 3 mps 755 mmHg 94%
22:00 +14°C° 0 mm 3 mps 755 mmHg 96%
23:00 +14°C° 0 mm 3 mps 755 mmHg 96%

24 June, Thursday

Time Temperature Precipitation Wind Pressure Humidity
00:00 +14°C° 0 mm 2 mps 755 mmHg 96%
01:00 +14°C° 0 mm 2 mps 755 mmHg 96%
02:00 +13°C° 0 mm 2 mps 755 mmHg 96%
03:00 +13°C° 0 mm 2 mps 755 mmHg 96%
04:00 +13°C° 0 mm 2 mps 754 mmHg 96%
05:00 +15°C° 0 mm 2 mps 754 mmHg 92%
06:00 +16°C° 0 mm 3 mps 755 mmHg 87%
07:00 +18°C° 0 mm 3 mps 755 mmHg 83%
08:00 +19°C° 0 mm 3 mps 755 mmHg 76%
09:00 +21°C° 0 mm 3 mps 755 mmHg 70%
10:00 +22°C° 0 mm 3 mps 754 mmHg 64%
11:00 +24°C° 0.1 mm 3 mps 754 mmHg 62%
12:00 +25°C° 0.1 mm 4 mps 754 mmHg 61%
13:00 +26°C° 0.1 mm 4 mps 753 mmHg 59%
14:00 +25°C° 0.5 mm 4 mps 753 mmHg 63%
15:00 +25°C° 0.5 mm 4 mps 753 mmHg 66%
16:00 +25°C° 0.5 mm 4 mps 753 mmHg 70%
17:00 +23°C° 0.3 mm 4 mps 752 mmHg 74%
18:00 +22°C° 0.3 mm 5 mps 752 mmHg 78%
19:00 +20°C° 0.3 mm 6 mps 751 mmHg 83%
20:00 +19°C° 1.5 mm 5 mps 751 mmHg 87%
21:00 +19°C° 1.5 mm 5 mps 751 mmHg 90%
22:00 +18°C° 1.5 mm 4 mps 751 mmHg 94%
23:00 +17°C° 0.3 mm 4 mps 751 mmHg 95%
Show more

We Need Your Consent

Meteoprog and our Service Providers may store and access personal data such as cookies, device identifiers or other similar technologies on your device and process such data to personalise content and ads, as well as provide social media features and to analyse the traffic.

  • Store and/or access information on your device

    Cookies, device identifiers or other information can be stored or accessed on your device for the purposes indicated above.

  • Personalised ads and content, ad and content measurement, audience insights, and products development

    Ads and content can be personalised based on a profile. More data can be added to better personalise ads and content. Ad and content performance can be measured. Insights about the audience who saw the ads and content can be derived. Such data can be used to develop or improve user’s experience, systems and software.

By clicking ‘I Agree’ you will allow the use of indicated cookies, device identifiers, web beacons or other similar technologies. Your settings can be changed in the browser on your device.

For certain purposes, legitimate interests may be relied on, rather than consent. You can read more about this in our Privacy and Cookie Policy.